TimeEDT,TemperatureF,Dew PointF,Humidity,Sea Level PressureIn,VisibilityMPH,Wind Direction,Wind SpeedMPH,Gust SpeedMPH,PrecipitationIn,Events,Conditions,WindDirDegrees,DateUTC
12:55 AM,63.3,42.3,46,29.57,10.0,SSE,12.7,-,N/A,,Mostly Cloudy,150,2012-10-18 04:55:00
1:55 AM,63.3,41.9,46,29.52,10.0,SSE,13.8,21.9,N/A,,Mostly Cloudy,160,2012-10-18 05:55:00
2:55 AM,64.9,41.9,43,29.54,10.0,South,21.9,31.1,N/A,,Overcast,170,2012-10-18 06:55:00
3:55 AM,64.4,42.3,44,29.51,10.0,South,20.7,27.6,N/A,,Overcast,170,2012-10-18 07:55:00
4:55 AM,63.3,43.5,48,29.49,10.0,South,18.4,25.3,N/A,,Overcast,180,2012-10-18 08:55:00
5:10 AM,62.6,46.4,55,29.49,10.0,South,32.2,46.0,N/A,,Mostly Cloudy,180,2012-10-18 09:10:00
5:31 AM,60.8,48.2,63,29.48,10.0,South,19.6,28.8,N/A,Rain,Light Rain,180,2012-10-18 09:31:00
5:55 AM,58.6,49.1,71,29.49,10.0,South,21.9,29.9,0.00,Rain,Light Rain,180,2012-10-18 09:55:00
6:26 AM,57.2,50.0,77,29.48,10.0,SSE,15.0,-,N/A,,Overcast,160,2012-10-18 10:26:00
6:55 AM,57.2,50.2,77,29.50,10.0,South,16.1,-,0.00,,Overcast,180,2012-10-18 10:55:00
7:55 AM,57.2,50.0,77,29.51,7.0,South,18.4,26.5,0.00,Rain,Light Rain,180,2012-10-18 11:55:00
8:09 AM,57.2,50.0,77,29.52,7.0,South,21.9,32.2,N/A,Rain,Light Rain,190,2012-10-18 12:09:00
8:20 AM,53.6,50.0,88,29.55,5.0,WSW,19.6,33.4,N/A,Rain,Rain,250,2012-10-18 12:20:00
8:41 AM,51.8,48.2,88,29.57,10.0,SW,11.5,-,N/A,Rain,Light Rain,230,2012-10-18 12:41:00
8:47 AM,51.8,48.2,88,29.57,10.0,SW,11.5,-,N/A,Rain,Light Rain,230,2012-10-18 12:47:00
8:55 AM,51.1,48.0,89,29.58,10.0,SW,13.8,-,0.04,Rain,Light Rain,230,2012-10-18 12:55:00
9:05 AM,51.8,48.2,88,29.59,10.0,SW,13.8,-,N/A,,Mostly Cloudy,220,2012-10-18 13:05:00
9:21 AM,51.8,48.2,88,29.60,10.0,SW,12.7,-,N/A,,Overcast,220,2012-10-18 13:21:00
9:25 AM,51.8,48.2,88,29.60,10.0,SW,15.0,-,N/A,,Overcast,220,2012-10-18 13:25:00
9:41 AM,51.8,48.2,88,29.61,10.0,SW,13.8,-,N/A,,Mostly Cloudy,220,2012-10-18 13:41:00
9:46 AM,51.8,48.2,88,29.61,10.0,SW,13.8,-,N/A,,Mostly Cloudy,220,2012-10-18 13:46:00
9:55 AM,52.3,47.3,83,29.61,10.0,SW,16.1,-,0.00,,Mostly Cloudy,220,2012-10-18 13:55:00
10:03 AM,51.8,46.4,82,29.62,10.0,SW,15.0,26.5,N/A,,Overcast,220,2012-10-18 14:03:00
10:15 AM,51.8,46.4,82,29.62,10.0,SW,19.6,-,N/A,,Mostly Cloudy,220,2012-10-18 14:15:00
10:24 AM,53.6,48.2,82,29.62,10.0,SW,17.3,24.2,N/A,,Mostly Cloudy,220,2012-10-18 14:24:00
10:33 AM,53.6,46.4,77,29.63,10.0,SW,18.4,25.3,N/A,,Scattered Clouds,220,2012-10-18 14:33:00
10:42 AM,53.6,46.4,77,29.62,10.0,SW,19.6,28.8,N/A,,Scattered Clouds,220,2012-10-18 14:42:00
10:55 AM,54.1,45.7,73,29.64,10.0,SW,19.6,29.9,0.01,,Scattered Clouds,220,2012-10-18 14:55:00
11:55 AM,56.3,40.1,55,29.66,10.0,SW,21.9,27.6,N/A,,Partly Cloudy,230,2012-10-18 15:55:00
12:55 PM,59.0,37.9,46,29.67,10.0,WSW,12.7,-,N/A,,Partly Cloudy,250,2012-10-18 16:55:00
1:55 PM,61.2,36.5,40,29.64,10.0,SW,13.8,20.7,N/A,,Partly Cloudy,220,2012-10-18 17:55:00
2:55 PM,62.4,33.1,33,29.65,10.0,SSW,15.0,23.0,N/A,,Partly Cloudy,210,2012-10-18 18:55:00
3:55 PM,63.0,30.0,29,29.64,10.0,SW,19.6,28.8,N/A,,Scattered Clouds,220,2012-10-18 19:55:00
4:55 PM,62.2,30.0,30,29.65,10.0,SW,20.7,24.2,N/A,,Scattered Clouds,220,2012-10-18 20:55:00
5:55 PM,59.9,32.0,35,29.67,10.0,SW,17.3,24.2,N/A,,Scattered Clouds,220,2012-10-18 21:55:00
6:55 PM,54.7,33.1,44,29.70,10.0,SSW,13.8,-,N/A,,Partly Cloudy,210,2012-10-18 22:55:00
7:55 PM,51.3,33.3,50,29.70,10.0,South,8.1,-,N/A,,Clear,190,2012-10-18 23:55:00
8:55 PM,51.4,33.3,50,29.70,10.0,SSE,8.1,-,N/A,,Clear,160,2012-10-19 00:55:00
9:55 PM,50.5,33.6,52,29.70,10.0,SE,9.2,-,N/A,,Partly Cloudy,140,2012-10-19 01:55:00
10:55 PM,50.0,33.1,52,29.70,10.0,SE,8.1,-,N/A,,Scattered Clouds,140,2012-10-19 02:55:00
11:55 PM,51.1,32.7,50,29.68,10.0,SE,9.2,-,N/A,,Mostly Cloudy,140,2012-10-19 03:55:00